When you browse on this site, cookies collect data to enhance your experience and personalize the content and advertising you see.
Visit our Privacy Policy to learn more. By continuing to use the site, you agree to this use of cookies and data.
  • In Hungary
  • List of Countries
  • For 7 days
  • Water Temperature
  • Weather Map
  • News
  • Weather Widgets
  • user-avatar
    Login

    Hourly Weather Aleksandrovka 1-ya

    Today, 16 October, Wednesday

    Time Temperature Precipitation Wind Pressure Humidity
    00:00 +16°C° 0 mm 2 mps 760 mmHg 54%
    01:00 +16°C° 0 mm 2 mps 760 mmHg 56%
    02:00 +15°C° 0 mm 2 mps 760 mmHg 59%
    03:00 +15°C° 0 mm 1 mps 761 mmHg 63%
    04:00 +14°C° 0 mm 1 mps 761 mmHg 65%
    05:00 +14°C° 0 mm 2 mps 761 mmHg 67%
    06:00 +14°C° 0 mm 2 mps 761 mmHg 68%
    07:00 +15°C° 0 mm 2 mps 761 mmHg 65%
    08:00 +16°C° 0 mm 2 mps 761 mmHg 63%
    09:00 +17°C° 0 mm 3 mps 761 mmHg 59%
    10:00 +19°C° 0 mm 3 mps 761 mmHg 54%
    11:00 +20°C° 0 mm 3 mps 761 mmHg 49%
    12:00 +22°C° 0 mm 3 mps 761 mmHg 45%
    13:00 +22°C° 0 mm 3 mps 761 mmHg 44%
    14:00 +23°C° 0 mm 4 mps 761 mmHg 43%
    15:00 +24°C° 0 mm 3 mps 761 mmHg 44%
    16:00 +22°C° 0 mm 3 mps 761 mmHg 49%
    17:00 +21°C° 0 mm 3 mps 761 mmHg 54%
    18:00 +19°C° 0 mm 3 mps 761 mmHg 59%
    19:00 +19°C° 0 mm 4 mps 761 mmHg 62%
    20:00 +18°C° 0 mm 4 mps 761 mmHg 66%
    21:00 +17°C° 0 mm 4 mps 762 mmHg 69%
    22:00 +17°C° 0 mm 4 mps 762 mmHg 71%
    23:00 +15°C° 0 mm 4 mps 761 mmHg 73%

    Tomorrow, 17 October, Thursday

    Time Temperature Precipitation Wind Pressure Humidity
    00:00 +15°C° 0 mm 4 mps 761 mmHg 76%
    01:00 +14°C° 0 mm 5 mps 761 mmHg 78%
    02:00 +14°C° 0 mm 5 mps 761 mmHg 80%
    03:00 +14°C° 0 mm 5 mps 762 mmHg 82%
    04:00 +13°C° 0 mm 5 mps 761 mmHg 84%
    05:00 +13°C° 0 mm 5 mps 761 mmHg 85%
    06:00 +12°C° 0 mm 5 mps 761 mmHg 87%
    07:00 +13°C° 0 mm 5 mps 761 mmHg 83%
    08:00 +14°C° 0 mm 5 mps 761 mmHg 79%
    09:00 +14°C° 0 mm 5 mps 761 mmHg 75%
    10:00 +16°C° 0 mm 5 mps 761 mmHg 68%
    11:00 +19°C° 0 mm 5 mps 761 mmHg 61%
    12:00 +20°C° 0 mm 5 mps 761 mmHg 53%
    13:00 +21°C° 0 mm 5 mps 761 mmHg 50%
    14:00 +22°C° 0 mm 5 mps 760 mmHg 47%
    15:00 +22°C° 0 mm 5 mps 760 mmHg 44%
    16:00 +21°C° 0 mm 5 mps 760 mmHg 47%
    17:00 +20°C° 0 mm 4 mps 760 mmHg 51%
    18:00 +19°C° 0 mm 3 mps 759 mmHg 55%
    19:00 +18°C° 0 mm 4 mps 759 mmHg 57%
    20:00 +17°C° 0 mm 4 mps 759 mmHg 60%
    21:00 +17°C° 0 mm 4 mps 759 mmHg 62%
    22:00 +15°C° 0 mm 4 mps 759 mmHg 65%
    23:00 +16°C° 0 mm 3 mps 759 mmHg 68%

    Day after tomorrow, 18 October, Friday

    Time Temperature Precipitation Wind Pressure Humidity
    00:00 +14°C° 0 mm 3 mps 759 mmHg 71%
    01:00 +14°C° 0 mm 3 mps 759 mmHg 74%
    02:00 +13°C° 0 mm 3 mps 759 mmHg 77%
    03:00 +13°C° 0 mm 3 mps 759 mmHg 80%
    04:00 +12°C° 0 mm 3 mps 759 mmHg 82%
    05:00 +12°C° 0 mm 3 mps 759 mmHg 83%
    06:00 +11°C° 0 mm 3 mps 758 mmHg 85%
    07:00 +12°C° 0 mm 3 mps 759 mmHg 81%
    08:00 +13°C° 0 mm 3 mps 759 mmHg 77%
    09:00 +14°C° 0 mm 3 mps 759 mmHg 73%
    10:00 +17°C° 0 mm 3 mps 759 mmHg 66%
    11:00 +19°C° 0 mm 3 mps 758 mmHg 59%
    12:00 +20°C° 0 mm 3 mps 758 mmHg 52%
    13:00 +21°C° 0 mm 3 mps 758 mmHg 49%
    14:00 +22°C° 0 mm 3 mps 758 mmHg 46%
    15:00 +22°C° 0 mm 3 mps 758 mmHg 43%
    16:00 +21°C° 0 mm 2 mps 758 mmHg 45%
    17:00 +20°C° 0 mm 2 mps 758 mmHg 48%
    18:00 +19°C° 0 mm 2 mps 758 mmHg 51%
    19:00 +18°C° 0 mm 2 mps 758 mmHg 52%
    20:00 +17°C° 0 mm 2 mps 758 mmHg 54%
    21:00 +17°C° 0 mm 2 mps 758 mmHg 55%
    22:00 +16°C° 0 mm 2 mps 758 mmHg 57%
    23:00 +16°C° 0 mm 2 mps 758 mmHg 59%

    19 October, Saturday

    Time Temperature Precipitation Wind Pressure Humidity
    00:00 +15°C° 0 mm 2 mps 758 mmHg 60%
    01:00 +15°C° 0 mm 2 mps 758 mmHg 62%
    02:00 +14°C° 0 mm 2 mps 758 mmHg 63%
    03:00 +14°C° 0 mm 2 mps 758 mmHg 65%
    04:00 +14°C° 0 mm 2 mps 759 mmHg 66%
    05:00 +13°C° 0 mm 2 mps 759 mmHg 67%
    06:00 +13°C° 0 mm 2 mps 759 mmHg 67%
    07:00 +13°C° 0 mm 3 mps 759 mmHg 64%
    08:00 +14°C° 0 mm 3 mps 759 mmHg 60%
    09:00 +16°C° 0 mm 3 mps 760 mmHg 56%
    10:00 +18°C° 0 mm 3 mps 760 mmHg 50%
    11:00 +20°C° 0 mm 3 mps 760 mmHg 45%
    12:00 +21°C° 0 mm 3 mps 760 mmHg 40%
    13:00 +22°C° 0 mm 3 mps 760 mmHg 38%
    14:00 +22°C° 0 mm 3 mps 760 mmHg 36%
    15:00 +24°C° 0 mm 3 mps 759 mmHg 35%
    16:00 +21°C° 0 mm 3 mps 760 mmHg 39%
    17:00 +20°C° 0 mm 3 mps 760 mmHg 43%
    18:00 +19°C° 0 mm 3 mps 760 mmHg 47%
    19:00 +18°C° 0 mm 3 mps 760 mmHg 50%
    20:00 +17°C° 0 mm 3 mps 760 mmHg 53%
    21:00 +16°C° 0 mm 3 mps 761 mmHg 57%
    22:00 +16°C° 0 mm 3 mps 761 mmHg 59%
    23:00 +14°C° 0 mm 3 mps 761 mmHg 61%

    20 October, Sunday

    Time Temperature Precipitation Wind Pressure Humidity
    00:00 +14°C° 0 mm 3 mps 761 mmHg 63%
    01:00 +13°C° 0 mm 3 mps 761 mmHg 66%
    02:00 +13°C° 0 mm 3 mps 761 mmHg 69%
    03:00 +13°C° 0 mm 3 mps 761 mmHg 73%
    04:00 +12°C° 0 mm 3 mps 762 mmHg 74%
    05:00 +12°C° 0 mm 4 mps 762 mmHg 76%
    06:00 +12°C° 0 mm 4 mps 762 mmHg 77%
    07:00 +13°C° 0 mm 4 mps 763 mmHg 73%
    08:00 +13°C° 0 mm 4 mps 763 mmHg 69%
    09:00 +14°C° 0 mm 5 mps 763 mmHg 66%
    10:00 +16°C° 0 mm 5 mps 763 mmHg 59%
    11:00 +19°C° 0 mm 5 mps 763 mmHg 53%
    12:00 +20°C° 0 mm 5 mps 763 mmHg 47%
    13:00 +21°C° 0 mm 5 mps 763 mmHg 46%
    14:00 +21°C° 0 mm 4 mps 763 mmHg 44%
    15:00 +22°C° 0 mm 4 mps 763 mmHg 43%
    16:00 +20°C° 0 mm 4 mps 763 mmHg 47%
    17:00 +19°C° 0 mm 4 mps 763 mmHg 52%
    18:00 +18°C° 0 mm 4 mps 763 mmHg 56%
    19:00 +17°C° 0 mm 4 mps 763 mmHg 57%
    20:00 +17°C° 0 mm 4 mps 763 mmHg 59%
    21:00 +15°C° 0 mm 4 mps 764 mmHg 61%
    22:00 +14°C° 0 mm 4 mps 764 mmHg 62%
    23:00 +14°C° 0 mm 4 mps 764 mmHg 64%

    21 October, Monday

    Time Temperature Precipitation Wind Pressure Humidity
    00:00 +13°C° 0 mm 3 mps 764 mmHg 65%
    01:00 +13°C° 0 mm 3 mps 764 mmHg 66%
    02:00 +12°C° 0 mm 3 mps 764 mmHg 67%
    03:00 +12°C° 0 mm 3 mps 764 mmHg 68%
    04:00 +11°C° 0 mm 3 mps 764 mmHg 69%
    05:00 +11°C° 0 mm 4 mps 764 mmHg 70%
    06:00 +11°C° 0 mm 4 mps 764 mmHg 71%
    07:00 +12°C° 0 mm 4 mps 765 mmHg 68%
    08:00 +13°C° 0 mm 4 mps 765 mmHg 65%
    09:00 +13°C° 0 mm 5 mps 765 mmHg 62%
    10:00 +15°C° 0 mm 5 mps 765 mmHg 57%
    11:00 +16°C° 0 mm 5 mps 765 mmHg 51%
    12:00 +19°C° 0 mm 5 mps 765 mmHg 46%
    13:00 +19°C° 0 mm 5 mps 764 mmHg 45%
    14:00 +20°C° 0 mm 4 mps 764 mmHg 44%
    15:00 +20°C° 0 mm 4 mps 764 mmHg 43%
    16:00 +19°C° 0 mm 4 mps 763 mmHg 47%
    17:00 +18°C° 0 mm 3 mps 763 mmHg 51%
    18:00 +17°C° 0 mm 3 mps 763 mmHg 55%
    19:00 +16°C° 0 mm 3 mps 763 mmHg 58%
    20:00 +14°C° 0 mm 3 mps 763 mmHg 60%
    21:00 +14°C° 0 mm 3 mps 763 mmHg 63%
    22:00 +13°C° 0 mm 3 mps 763 mmHg 64%
    23:00 +13°C° 0 mm 3 mps 763 mmHg 66%
    Show more